{"data":{"norad_id":68734,"epoch":"2026-05-25T02:39:44.544672Z","epoch_age_seconds":69465,"freshness":"FRESH","line1":"1 68734U 26082G   26145.11093223  .00034644  00000+0  52292-3 0  9998","line2":"2 68734  97.2851   8.8178 0002673  61.4122 298.7401 15.54673429  6157","mean_motion":15.54673429,"eccentricity":0.0002673,"inclination_deg":97.2851,"raan_deg":8.8178,"arg_perigee_deg":61.4122,"mean_anomaly_deg":298.7401,"bstar":0.00052292,"rev_number":615,"period_min":92.623953888904,"perigee_km":401.28947192141,"apogee_km":404.91472234273,"semimajor_km":6781.2390971321,"source":"CELESTRAK","updated_at":"2026-05-25T13:38:22.005533Z"}}